FLOCK 4BE 4

导读 | 星芒AI

FLOCK 4BE 4 是由 Planet Labs 运营的 Dove 卫星之一,属于其 Flock 4B 系列。该卫星是一颗小型地球观测卫星,主要用于高分辨率光学成像,支持全球范围的日常影像采集。它运行在低地球轨道,与其他 Dove 卫星协同工作,提供频繁的重访周期和广泛的地理覆盖。Flock 4B 系列卫星增强了 Planet 的影像能力,广泛应用于环境监测、农业、城市规划和灾害响应等领域。

基本信息
目录编号:
60482
目录名称:
FLOCK 4BE 4
国际标识:
2024-149Q
轨道中心:
EARTH
卫星名称:
FLOCK 4BE 4
卫星全名:
FLOCK 4BE 4
卫星状态:
在轨 (已飞行439 天)
发射日期:
2024-08-16 UTC
国别 :
美国 (US)
星等 :
--
轨道信息
数据来源 国际轨道数据
星历时间: 2025-10-29T12:52:36+0800
12小时前
查看轨道信息
半长轴: 6714.458km
偏心率: 0.0008864
轨道倾角: 97.394°
近地点辐角 285.103°
升交点赤经 31.698°
平近点角 74.926°
近地点: 330.371km
远地点: 342.275km
周期: 91.259分钟
每日圈数: 15.779249
详细信息
使用方式:
暂无
2D轨道图
3D轨道图
轨道高度分析图
轨道倾角分析图
轨道综合分析图
查看轨道综合分析图